| Date | Time | Temp. (oF) | Dew Point (oF) | Rel. Hum. (%) | Press. (in.) | Wind Dir. | Wind Speed (mph) | Hourly Rainfall (in.) |
|
|---|---|---|---|---|---|---|---|---|---|
| 1 | 06/20 | 00:00 | 63 | 59 | 88 | 30.26 | SSE | 1 | 0.00 |
| 2 | 06/19 | 23:00 | 64 | 58 | 83 | 30.25 | SSE | 1 | 0.00 |
| 3 | 06/19 | 22:00 | 66 | 59 | 81 | 30.23 | S | 2 | 0.00 |
| 4 | 06/19 | 21:00 | 68 | 60 | 77 | 30.20 | SSE | 2 | 0.00 |
| 5 | 06/19 | 20:00 | 70 | 61 | 74 | 30.19 | S | 0 | 0.00 |
| 6 | 06/19 | 19:00 | 71 | 61 | 73 | 30.17 | SSE | 0 | 0.00 |
| 7 | 06/19 | 18:00 | 73 | 62 | 69 | 30.16 | NE | 7 | 0.00 |
| 8 | 06/19 | 17:00 | 71 | 61 | 73 | 30.17 | E | 4 | 0.00 |
| 9 | 06/19 | 16:00 | 72 | 62 | 71 | 30.17 | NNE | 7 | 0.00 |
| 10 | 06/19 | 15:00 | 70 | 61 | 75 | 30.17 | N | 4 | 0.00 |
| 11 | 06/19 | 14:00 | 70 | 62 | 77 | 30.18 | NNE | 7 | 0.00 |
| 12 | 06/19 | 13:00 | 69 | 62 | 79 | 30.18 | NNE | 7 | 0.00 |
| 13 | 06/19 | 12:00 | 69 | 61 | 78 | 30.17 | ENE | 4 | 0.00 |
| 14 | 06/19 | 11:00 | 67 | 60 | 80 | 30.17 | ENE | 6 | 0.00 |
| 15 | 06/19 | 10:00 | 66 | 59 | 81 | 30.16 | NE | 7 | 0.00 |
| 16 | 06/19 | 09:00 | 64 | 58 | 81 | 30.16 | NE | 7 | 0.00 |
| 17 | 06/19 | 08:00 | 63 | 57 | 81 | 30.14 | N | 5 | 0.00 |
| 18 | 06/19 | 07:00 | 62 | 57 | 84 | 30.12 | NE | 7 | 0.00 |
| 19 | 06/19 | 06:00 | 61 | 56 | 84 | 30.10 | NNW | 4 | 0.00 |
| 20 | 06/19 | 05:00 | 61 | 55 | 83 | 30.09 | NNW | 5 | 0.00 |
| 21 | 06/19 | 04:00 | 61 | 55 | 83 | 30.08 | NNW | 5 | 0.00 |
| 22 | 06/19 | 03:00 | 62 | 56 | 81 | 30.07 | NW | 3 | 0.00 |
| 23 | 06/19 | 02:00 | 62 | 55 | 79 | 30.07 | NNW | 6 | 0.00 |
| 24 | 06/19 | 01:00 | 63 | 55 | 77 | 30.06 | NW | 1 | 0.00 |